Location: Grange Verzio
(44.5000°N, 6.9833°E)
Time: 17:51:47
(UTC+00:00)

Cosmos 2219 Rocket - Pass Details

Date: 29 September 2023
Orbit: 826 x 848 km, 71.0° (Epoch: 08 December)

Event Time Altitude Azimuth Distance (km) Brightness Sun altitude
Rises 02:28:45 0° 340° (NNW) 3,395 5.5 -31.2°
Reaches altitude 10° 02:31:26 10° 350° (N) 2,460 4.8 -30.8°
Maximum altitude 02:36:33 34° 55° (NE) 1,351 3.7 -30.0°
Drops below altitude 10° 02:41:39 10° 119° (ESE) 2,460 4.9 -29.2°
Sets 02:44:19 0° 129° (SE) 3,394 5.6 -28.8°
